This is the latest recevied weather packets stored in our database for station/object G0AMO. If no packets are shown the sender has not sent any weather packets the latest 10 day(s).
| Time | Temp. | Humidity | Pressure | Rain* | Wind** | Luminosity | Snow |
|---|---|---|---|---|---|---|---|
| 1777690204 | 8.33° C | 97% | 1020.3 hPa | 0 mm | - | 0 W/m² | - |
| 1777686604 | 7.22° C | 96% | 1020 hPa | 0 mm | - | 0 W/m² | - |
| 1777686304 | 7.78° C | 96% | 1019.3 hPa | 0 mm | - | 0 W/m² | - |
| 1777678805 | 10° C | 93% | 1020.3 hPa | 0 mm | - | 0 W/m² | - |
| 1777676704 | 10.56° C | 92% | 1020.3 hPa | 0 mm | - | 0 W/m² | - |
| 1777675804 | 11.11° C | 91% | 1021.3 hPa | 0 mm | - | 0 W/m² | - |
| 1777671004 | 12.78° C | 85% | 1020.3 hPa | 0 mm | - | 0 W/m² | - |
| 1777670406 | 12.78° C | 85% | 1021 hPa | 0 mm | - | 0 W/m² | - |
| 1777670105 | 12.78° C | 84% | 1020.3 hPa | 0 mm | - | 0 W/m² | - |
| 1777665604 | 13.89° C | 76% | 1020 hPa | 0 mm | - | 0 W/m² | - |
| 1777664704 | 14.44° C | 74% | 1020 hPa | 0 mm | - | 0 W/m² | - |
| 1777661705 | 16.11° C | 72% | 1020 hPa | 0 mm | - | 0 W/m² | - |
| 1777661104 | 16.67° C | 71% | 1020 hPa | 0 mm | - | 0 W/m² | - |
| 1777656904 | 17.78° C | 65% | 1019.6 hPa | 0 mm | - | 170 W/m² | - |
| 1777656604 | 18.33° C | 65% | 1020 hPa | 0 mm | - | 189 W/m² | - |
| 1777655404 | 18.33° C | 64% | 1019.3 hPa | 0 mm | - | 269 W/m² | - |
| 1777652104 | 19.44° C | 66% | 1019.9 hPa | 0 mm | - | 515 W/m² | - |
| 1777647304 | 20° C | 66% | 1020 hPa | 0 mm | - | 874 W/m² | - |
| 1777645204 | 21.11° C | 67% | 1020.7 hPa | 0 mm | - | 1007 W/m² | - |
| 1777641004 | 21.11° C | 63% | 1020.3 hPa | 0 mm | - | 1183 W/m² | - |
| 1777638304 | 22.22° C | 56% | 1020 hPa | 0 mm | - | 1215 W/m² | - |
| 1777638004 | 22.78° C | 56% | 1020.3 hPa | 0 mm | - | 1214 W/m² | - |
| 1777637705 | 22.22° C | 58% | 1020.3 hPa | 0 mm | - | 1213 W/m² | - |
| 1777635604 | 22.22° C | 51% | 1020.3 hPa | 0 mm | - | 1178 W/m² | - |
| 1777632604 | 21.67° C | 49% | 1020.7 hPa | 0 mm | - | 1062 W/m² | - |
* Rain latest hour (hover to see other rain measurements)
** Current wind speed in m/s (hover to see current wind gust speed)